This is the latest recevied weather packets stored in our database for station/object KM4NDN. If no packets are shown the sender has not sent any weather packets the latest 10 day(s).
| Time | Temp. | Humidity | Pressure | Rain* | Wind** | Luminosity | Snow |
|---|---|---|---|---|---|---|---|
| 1777993044 | 18.33° C | 63% | 1004.8 hPa | 0 mm | - | 264 W/m² | - |
| 1777992743 | 18.33° C | 64% | 1004.6 hPa | 0 mm | - | 372 W/m² | - |
| 1777992440 | 18.33° C | 62% | 1004.3 hPa | 0 mm | - | 504 W/m² | - |
| 1777992138 | 17.78° C | 63% | 1004.2 hPa | 0 mm | - | 442 W/m² | - |
| 1777991835 | 18.33° C | 63% | 1004 hPa | 0 mm | - | 493 W/m² | - |
| 1777991532 | 18.33° C | 63% | 1003.8 hPa | 0 mm | - | 523 W/m² | - |
| 1777991229 | 17.78° C | 65% | 1003.8 hPa | 0 mm | - | 567 W/m² | - |
| 1777990926 | 17.78° C | 64% | 1003.8 hPa | 0 mm | - | 384 W/m² | - |
| 1777990624 | 17.78° C | 64% | 1004.1 hPa | 0 mm | - | 412 W/m² | - |
| 1777990016 | 17.78° C | 63% | 1003.8 hPa | 0 mm | - | 470 W/m² | - |
| 1777989714 | 17.78° C | 64% | 1004.1 hPa | 0 mm | - | 279 W/m² | - |
| 1777989410 | 17.78° C | 64% | 1003.9 hPa | 0 mm | - | 458 W/m² | - |
| 1777989107 | 17.78° C | 64% | 1003.9 hPa | 0 mm | - | 384 W/m² | - |
| 1777988802 | 17.22° C | 64% | 1004.2 hPa | 0 mm | - | 410 W/m² | - |
| 1777988500 | 17.22° C | 64% | 1004.1 hPa | 0 mm | - | 410 W/m² | - |
| 1777988197 | 17.22° C | 66% | 1003.6 hPa | 0 mm | - | 325 W/m² | - |
| 1777987893 | 17.22° C | 65% | 1004 hPa | 0 mm | - | 331 W/m² | - |
| 1777987589 | 17.22° C | 67% | 1004.3 hPa | 0 mm | - | 348 W/m² | - |
| 1777987287 | 17.22° C | 65% | 1004 hPa | 0 mm | - | 367 W/m² | - |
| 1777986983 | 17.22° C | 65% | 1004 hPa | 0 mm | - | 185 W/m² | - |
| 1777986681 | 17.22° C | 66% | 1003.9 hPa | 0 mm | - | 356 W/m² | - |
| 1777986379 | 17.22° C | 65% | 1003.9 hPa | 0 mm | - | 337 W/m² | - |
| 1777986078 | 17.22° C | 65% | 1004.1 hPa | 0 mm | - | 319 W/m² | - |
| 1777985774 | 17.22° C | 65% | 1003.8 hPa | 0 mm | - | 324 W/m² | - |
| 1777985471 | 16.67° C | 67% | 1004.1 hPa | 0 mm | - | 331 W/m² | - |
* Rain latest hour (hover to see other rain measurements)
** Current wind speed in m/s (hover to see current wind gust speed)